TimeMDT,TemperatureF,Dew PointF,Humidity,Sea Level PressureIn,VisibilityMPH,Wind Direction,Wind SpeedMPH,Gust SpeedMPH,PrecipitationIn,Events,Conditions,WindDirDegrees,DateUTC
12:53 AM,42.1,10.0,27,29.63,10.0,NNW,4.6,-,N/A,,Clear,330,2013-03-17 06:53:00
1:53 AM,37.0,12.9,37,29.59,10.0,Calm,Calm,-,N/A,,Clear,0,2013-03-17 07:53:00
2:53 AM,36.0,12.9,39,29.55,10.0,Variable,5.8,-,N/A,,Clear,0,2013-03-17 08:53:00
3:53 AM,42.1,19.9,41,29.50,10.0,Variable,4.6,-,N/A,,Clear,0,2013-03-17 09:53:00
4:53 AM,37.9,25.0,60,29.46,10.0,Variable,4.6,-,N/A,,Clear,0,2013-03-17 10:53:00
5:53 AM,41.0,21.9,47,29.42,10.0,WSW,27.6,39.1,N/A,,Clear,240,2013-03-17 11:53:00
6:53 AM,41.0,19.0,41,29.44,10.0,West,20.7,26.5,N/A,,Clear,260,2013-03-17 12:53:00
7:53 AM,37.0,23.0,57,29.49,10.0,WSW,20.7,35.7,N/A,,Clear,250,2013-03-17 13:53:00
8:53 AM,39.9,12.0,32,29.48,10.0,WSW,27.6,40.3,0.00,,Partly Cloudy,240,2013-03-17 14:53:00
9:53 AM,39.0,10.0,30,29.52,10.0,West,17.3,28.8,N/A,,Clear,270,2013-03-17 15:53:00
10:53 AM,39.0,9.0,29,29.47,10.0,West,27.6,48.3,N/A,,Clear,260,2013-03-17 16:53:00
11:53 AM,39.0,12.9,34,29.46,10.0,West,34.5,47.2,N/A,,Clear,270,2013-03-17 17:53:00
12:53 PM,39.0,3.9,23,29.45,9.0,West,42.6,62.1,N/A,,Clear,260,2013-03-17 18:53:00
1:09 PM,37.4,1.4,22,29.50,9.0,West,49.5,64.4,N/A,,Partly Cloudy,260,2013-03-17 19:09:00
1:53 PM,37.9,3.9,24,29.54,10.0,West,40.3,59.8,N/A,,Clear,280,2013-03-17 19:53:00
2:53 PM,39.0,6.1,26,29.60,10.0,WNW,25.3,36.8,N/A,,Partly Cloudy,290,2013-03-17 20:53:00
3:53 PM,36.0,3.0,25,29.62,10.0,West,29.9,38.0,N/A,,Partly Cloudy,280,2013-03-17 21:53:00
4:53 PM,36.0,7.0,30,29.70,10.0,West,23.0,31.1,N/A,,Scattered Clouds,280,2013-03-17 22:53:00
5:53 PM,35.1,-2.9,20,29.73,10.0,WNW,18.4,33.4,N/A,,Mostly Cloudy,290,2013-03-17 23:53:00
6:53 PM,32.0,-0.9,24,29.78,10.0,WNW,15.0,23.0,N/A,,Mostly Cloudy,290,2013-03-18 00:53:00
7:53 PM,28.9,-0.9,28,29.85,10.0,West,9.2,-,N/A,,Partly Cloudy,260,2013-03-18 01:53:00
8:53 PM,28.9,-0.9,28,29.84,10.0,West,16.1,27.6,N/A,,Clear,270,2013-03-18 02:53:00
9:53 PM,28.0,-0.0,30,29.88,10.0,West,8.1,-,N/A,,Clear,260,2013-03-18 03:53:00
10:53 PM,26.1,1.0,34,29.89,10.0,SW,10.4,-,N/A,,Clear,230,2013-03-18 04:53:00
11:53 PM,26.1,1.0,34,29.89,10.0,SW,11.5,-,N/A,,Clear,230,2013-03-18 05:53:00